Regional Weather Roundup
Issued by NWS

Home | Current Version | Previous Version | Text Only | Print | Product List | Glossary On
Versions: 1 2 3 4 5 6 7 8 9 10 11 12 13 14 15 16 17 18 19 20 21 22 23 24 25 26 27 28 29 30 31 32 33 34 35 36 37 38 39 40 41 42 43 44 45 46 47 48 49 50
000
ASUS43 KOAX 281310
RWRNE

WEATHER ROUNDUP FOR NEBRASKA
NATIONAL WEATHER SERVICE OMAHA NE
800 AM CDT THU AUG 28 2014

NOTES: SATELLITE DATA IS BEING USED TO AUGMENT CLOUD COVER ABOVE
       12000 FEET.
       "FAIR" INDICATES FEW OR NO CLOUDS BELOW 12,000 FEET WITH NO
       SIGNIFICANT WEATHER AND/OR OBSTRUCTIONS TO VISIBILITY.

  * THESE STATIONS DO NOT REPORT WEATHER SUCH AS RAIN...SNOW OR FOG.

NEZ001>004-019>022-054>056-281400-
NEBRASKA PANHANDLE

CITY           SKY/WX    TMP DP  RH WIND       PRES   REMARKS
SCOTTSBLUFF    CLOUDY    60  59  96 W6        30.05R
ALLIANCE       CLOUDY    62  60  93 NW10      30.01R
CHADRON        CLOUDY    64  62  93 NW6       30.00R
KIMBALL        CLEAR     54  49  82 W9        30.08R
SIDNEY         CLEAR     58  54  86 NW10      30.06R
$$

NEZ057>060-069>072-079>082-281400-
SOUTHWEST NEBRASKA

CITY           SKY/WX    TMP DP  RH WIND       PRES   REMARKS
NORTH PLATTE   CLEAR     61  59  93 NW3       29.95R
IMPERIAL       PTCLDY    61  58  90 W8        29.99R
LEXINGTON      CLOUDY    66  65  96 W6        29.94R
MCCOOK         MOCLDY    63  62  97 W7        29.97R
OGALLALA       MOCLDY    59  58  97 CALM      29.99R
$$

NEZ005>010-023>029-035>040-094-281400-
NORTH CENTRAL NEBRASKA

CITY           SKY/WX    TMP DP  RH WIND       PRES   REMARKS
VALENTINE      FOG       68  67  96 E5        29.93R VSB 1
AINSWORTH      CLOUDY    67  67 100 CALM      29.94R FOG
BROKEN BOW     CLOUDY    66  64  93 NE3       29.94R
O`NEILL        CLOUDY    69  69  98 SE7       29.92R
ORD            CLOUDY    68  65  90 CALM      29.92R
THEDFORD       CLEAR     64  62  93 CALM      29.94S
$$

NEZ041-046>049-061>064-073>077-083>087-281400-
SOUTH CENTRAL NEBRASKA

CITY           SKY/WX    TMP DP  RH WIND       PRES   REMARKS
GRAND ISLAND   PTSUNNY   69  66  90 E7        29.90R
AURORA         CLOUDY    67  67 100 SE9       29.90S
HASTINGS       PTSUNNY   69  65  86 SE15      29.88F
HEBRON         CLOUDY    70  65  85 S8        29.93F
HOLDREGE       PTSUNNY   67  65  95 CALM      29.91R FOG
KEARNEY *      CLOUDY    66  66 100 SE10      29.90S
YORK           PTSUNNY   68 N/A N/A SE12      29.91F
$$

NEZ011>018-030>034-042>045-281400-
NORTHEAST NEBRASKA

CITY           SKY/WX    TMP DP  RH WIND       PRES   REMARKS
NORFOLK        CLOUDY    68  66  93 SE10      29.92F
ALBION         CLOUDY    67  65  94 SE9       29.92S
BLAIR          CLOUDY    70  68  93 E10       29.95F
FREMONT        CLOUDY    70  68  94 E8        29.94S
TEKAMAH        CLOUDY    70  68  93 SE9       29.94F
WAYNE          CLOUDY    68  67  96 SE10      29.94F
$$

NEZ050>053-065>068-078-088>093-281400-
SOUTHEAST NEBRASKA

CITY           SKY/WX    TMP DP  RH WIND       PRES   REMARKS
LINCOLN        CLOUDY    72  70  93 SE7       29.94F
OMAHA EPPLEY   TSTM      71  68  90 SE9       29.97R
BEATRICE       LGT RAIN  72  71  98 S3        29.96R
FALLS CITY     CLOUDY    73  72  96 CALM      29.97R
NEBRASKA CITY  RAIN      71  71 100 SE7       29.97F
PLATTSMOUTH    RAIN      71  69  93 SE3       29.98R
$$

NEZ044-045-051>053-067-281400-
OMAHA AREA

CITY           SKY/WX    TMP DP  RH WIND       PRES   REMARKS
OMAHA EPPLEY   TSTM      71  68  90 SE9       29.97R
BLAIR          CLOUDY    70  68  93 E10       29.95F
FREMONT        CLOUDY    70  68  94 E8        29.94S
MILLARD        CLOUDY    71  69  94 SE7       29.95F
OFFUTT AFB     DRIZZLE   71  71 100 VRB3      29.97R
PLATTSMOUTH    RAIN      71  69  93 SE3       29.98R
WAHOO          FAIR      69  66  91 SE6       29.94F
$$



USA.gov is the U.S. government's official web portal to all federal, state and local government web resources and services.